User: anonymous   Login
Location: Bandys
(35.4750°N, 81.0830°W)
Time: 12:33:49
(UTC-04:00)
Language:

DELTA 2 R/B (1) - Orbit

View from above orbital plane
View from above orbital plane
View from above satellite
View from above satellite

Ground track
Ground track

The orbit data is extracted from the following two-line orbital elements,

1 27665U 03005C   15182.17316778 -.00000124  00000-0 -15401-4 0  9995
2 27665 039.5747 160.9232 0009064 286.1038 139.0759 14.28346658648383
Epoch (UTC): 01 July 2015 04:09:21
Eccentricity: 0.0009064
inclination: 39.5747°
perigee height: 791 km
apogee height: 804 km
right ascension of ascending node: 160.9232°
argument of perigee: 286.1038°
revolutions per day: 14.28346658
mean anomaly at epoch: 139.0759°
orbit number at epoch: 64838

The dashed part of the orbit path shows where the satellite is in the earth's shadow,  

DLR